Year,Month,Day,Hour,Minute,Value (Times are PST for temperature in C)
2010,05,07,00,00,4.90
2010,05,07,00,01,4.90
2010,05,07,00,02,4.90
2010,05,07,00,03,4.90
2010,05,07,00,04,4.80
2010,05,07,00,05,4.80
2010,05,07,00,06,4.80
2010,05,07,00,07,4.80
2010,05,07,00,08,4.90
2010,05,07,00,09,4.90
2010,05,07,00,10,4.80
2010,05,07,00,11,4.80
2010,05,07,00,12,4.80
2010,05,07,00,13,4.80
2010,05,07,00,14,4.80
2010,05,07,00,15,4.80
2010,05,07,00,16,4.70
2010,05,07,00,17,4.70
2010,05,07,00,18,4.70
2010,05,07,00,19,4.70
2010,05,07,00,20,4.70
2010,05,07,00,21,4.70
2010,05,07,00,22,4.70
2010,05,07,00,23,4.60
2010,05,07,00,24,4.60
2010,05,07,00,25,4.60
2010,05,07,00,26,4.60
2010,05,07,00,27,4.60
2010,05,07,00,28,4.60
2010,05,07,00,29,4.60
2010,05,07,00,30,4.60
2010,05,07,00,31,4.60
2010,05,07,00,32,4.60
2010,05,07,00,33,4.60
2010,05,07,00,34,4.60
2010,05,07,00,35,4.60
2010,05,07,00,36,4.60
2010,05,07,00,37,4.60
2010,05,07,00,38,4.50
2010,05,07,00,39,4.50
2010,05,07,00,40,4.50
2010,05,07,00,41,4.50
2010,05,07,00,42,4.50
2010,05,07,00,43,4.50
2010,05,07,00,44,4.50
2010,05,07,00,45,4.50
2010,05,07,00,46,4.50
2010,05,07,00,47,4.50
2010,05,07,00,48,4.50
2010,05,07,00,49,4.40
2010,05,07,00,50,4.40
2010,05,07,00,51,4.40
2010,05,07,00,52,4.40
2010,05,07,00,53,4.30
2010,05,07,00,54,4.30
2010,05,07,00,55,4.30
2010,05,07,00,56,4.20
2010,05,07,00,57,4.20
2010,05,07,00,58,4.20
2010,05,07,00,59,4.20
2010,05,07,01,00,4.20
2010,05,07,01,01,4.20
2010,05,07,01,02,4.20
2010,05,07,01,03,4.20
2010,05,07,01,04,4.20
2010,05,07,01,05,4.20
2010,05,07,01,06,4.20
2010,05,07,01,07,4.20
2010,05,07,01,08,4.20
2010,05,07,01,09,4.20
2010,05,07,01,10,4.20
2010,05,07,01,11,4.20
2010,05,07,01,12,4.20
2010,05,07,01,13,4.10
2010,05,07,01,14,4.10
2010,05,07,01,15,4.10
2010,05,07,01,16,4.10
2010,05,07,01,17,4.10
2010,05,07,01,18,4.10
2010,05,07,01,19,4.10
2010,05,07,01,20,4.10
2010,05,07,01,21,4.10
2010,05,07,01,22,4.10
2010,05,07,01,23,4.20
2010,05,07,01,24,4.20
2010,05,07,01,25,4.20
2010,05,07,01,26,4.10
2010,05,07,01,27,4.10
2010,05,07,01,28,4.10
2010,05,07,01,29,4.10
2010,05,07,01,30,4.10
2010,05,07,01,31,4.10
2010,05,07,01,32,4.00
2010,05,07,01,33,4.00
2010,05,07,01,34,4.00
2010,05,07,01,35,4.00
2010,05,07,01,36,4.00
2010,05,07,01,37,3.90
2010,05,07,01,38,3.90
2010,05,07,01,39,3.80
2010,05,07,01,40,3.80
2010,05,07,01,41,3.80
2010,05,07,01,42,3.80
2010,05,07,01,43,3.80
2010,05,07,01,44,3.80
2010,05,07,01,45,3.80
2010,05,07,01,46,3.80
2010,05,07,01,47,3.80
2010,05,07,01,48,3.80
2010,05,07,01,49,3.80
2010,05,07,01,50,3.80
2010,05,07,01,51,3.80
2010,05,07,01,52,3.80
2010,05,07,01,53,3.80
2010,05,07,01,54,3.70
2010,05,07,01,55,3.70
2010,05,07,01,56,3.70
2010,05,07,01,57,3.70
2010,05,07,01,58,3.70
2010,05,07,01,59,3.70
2010,05,07,02,00,3.70
2010,05,07,02,01,3.70
2010,05,07,02,02,3.70
2010,05,07,02,03,3.70
2010,05,07,02,04,3.70
2010,05,07,02,05,3.70
2010,05,07,02,06,3.70
2010,05,07,02,07,3.70
2010,05,07,02,08,3.70
2010,05,07,02,09,3.70
2010,05,07,02,10,3.70
2010,05,07,02,11,3.70
2010,05,07,02,12,3.70
2010,05,07,02,13,3.70
2010,05,07,02,14,3.60
2010,05,07,02,15,3.60
2010,05,07,02,16,3.50
2010,05,07,02,17,3.50
2010,05,07,02,18,3.50
2010,05,07,02,19,3.50
2010,05,07,02,20,3.50
2010,05,07,02,21,3.40
2010,05,07,02,22,3.40
2010,05,07,02,23,3.40
2010,05,07,02,24,3.40
2010,05,07,02,25,3.40
2010,05,07,02,26,3.40
2010,05,07,02,27,3.40
2010,05,07,02,28,3.40
2010,05,07,02,29,3.40
2010,05,07,02,30,3.40
2010,05,07,02,31,3.40
2010,05,07,02,32,3.40
2010,05,07,02,33,3.40
2010,05,07,02,34,3.40
2010,05,07,02,35,3.40
2010,05,07,02,36,3.40
2010,05,07,02,37,3.40
2010,05,07,02,38,3.40
2010,05,07,02,39,3.40
2010,05,07,02,40,3.40
2010,05,07,02,41,3.40
2010,05,07,02,42,3.40
2010,05,07,02,43,3.40
2010,05,07,02,44,3.40
2010,05,07,02,45,3.30
2010,05,07,02,46,3.30
2010,05,07,02,47,3.30
2010,05,07,02,48,3.30
2010,05,07,02,49,3.30
2010,05,07,02,50,3.30
2010,05,07,02,51,3.30
2010,05,07,02,52,3.30
2010,05,07,02,53,3.30
2010,05,07,02,54,3.30
2010,05,07,02,55,3.30
2010,05,07,02,56,3.30
2010,05,07,02,57,3.30
2010,05,07,02,58,3.20
2010,05,07,02,59,3.20
2010,05,07,03,00,3.20
2010,05,07,03,01,3.20
2010,05,07,03,02,3.20
2010,05,07,03,03,3.20
2010,05,07,03,04,3.20
2010,05,07,03,05,3.20
2010,05,07,03,06,3.20
2010,05,07,03,07,3.20
2010,05,07,03,08,3.20
2010,05,07,03,09,3.20
2010,05,07,03,10,3.20
2010,05,07,03,11,3.20
2010,05,07,03,12,3.20
2010,05,07,03,13,3.20
2010,05,07,03,14,3.30
2010,05,07,03,15,3.30
2010,05,07,03,16,3.30
2010,05,07,03,17,3.30
2010,05,07,03,18,3.20
2010,05,07,03,19,3.20
2010,05,07,03,20,3.20
2010,05,07,03,21,3.10
2010,05,07,03,22,3.10
2010,05,07,03,23,3.10
2010,05,07,03,24,3.10
2010,05,07,03,25,3.10
2010,05,07,03,26,3.00
2010,05,07,03,27,2.90
2010,05,07,03,28,2.90
2010,05,07,03,29,2.90
2010,05,07,03,30,2.90
2010,05,07,03,31,2.90
2010,05,07,03,32,2.90
2010,05,07,03,33,2.90
2010,05,07,03,34,2.90
2010,05,07,03,35,2.90
2010,05,07,03,36,2.90
2010,05,07,03,37,2.90
2010,05,07,03,38,2.90
2010,05,07,03,39,2.90
2010,05,07,03,40,2.90
2010,05,07,03,41,2.90
2010,05,07,03,42,2.80
2010,05,07,03,43,2.80
2010,05,07,03,44,2.80
2010,05,07,03,45,2.80
2010,05,07,03,46,2.70
2010,05,07,03,47,2.70
2010,05,07,03,48,2.70
2010,05,07,03,49,2.80
2010,05,07,03,50,2.80
2010,05,07,03,51,2.80
2010,05,07,03,52,2.70
2010,05,07,03,53,2.70
2010,05,07,03,54,2.70
2010,05,07,03,55,2.70
2010,05,07,03,56,2.70
2010,05,07,03,57,2.70
2010,05,07,03,58,2.70
2010,05,07,03,59,2.70
2010,05,07,04,00,2.70
2010,05,07,04,01,2.70
2010,05,07,04,02,2.70
2010,05,07,04,03,2.70
2010,05,07,04,04,2.70
2010,05,07,04,05,2.70
2010,05,07,04,06,2.70
2010,05,07,04,07,2.70
2010,05,07,04,08,2.60
2010,05,07,04,09,2.60
2010,05,07,04,10,2.60
2010,05,07,04,11,2.70
2010,05,07,04,12,2.70
2010,05,07,04,13,2.80
2010,05,07,04,14,2.90
2010,05,07,04,15,2.90
2010,05,07,04,16,3.00
2010,05,07,04,17,3.10
2010,05,07,04,18,3.10
2010,05,07,04,19,3.20
2010,05,07,04,20,3.30
2010,05,07,04,21,3.30
2010,05,07,04,22,3.30
2010,05,07,04,23,3.30
2010,05,07,04,24,3.30
2010,05,07,04,25,3.30
2010,05,07,04,26,3.30
2010,05,07,04,27,3.30
2010,05,07,04,28,3.30
2010,05,07,04,29,3.30
2010,05,07,04,30,3.30
2010,05,07,04,31,3.30
2010,05,07,04,32,3.30
2010,05,07,04,33,3.30
2010,05,07,04,34,3.30
2010,05,07,04,35,3.30
2010,05,07,04,36,3.30
2010,05,07,04,37,3.30
2010,05,07,04,38,3.30
2010,05,07,04,39,3.30
2010,05,07,04,40,3.30
2010,05,07,04,41,3.30
2010,05,07,04,42,3.20
2010,05,07,04,43,3.10
2010,05,07,04,44,3.10
2010,05,07,04,45,3.10
2010,05,07,04,46,3.10
2010,05,07,04,47,3.10
2010,05,07,04,48,3.10
2010,05,07,04,49,3.10
2010,05,07,04,50,3.10
2010,05,07,04,51,3.10
2010,05,07,04,52,3.00
2010,05,07,04,53,2.90
2010,05,07,04,54,2.90
2010,05,07,04,55,2.90
2010,05,07,04,56,2.90
2010,05,07,04,57,2.90
2010,05,07,04,58,2.90
2010,05,07,04,59,2.90
2010,05,07,05,00,2.90
2010,05,07,05,01,2.90
2010,05,07,05,02,2.90
2010,05,07,05,03,2.90
2010,05,07,05,04,2.90
2010,05,07,05,05,2.90
2010,05,07,05,06,2.90
2010,05,07,05,07,2.90
2010,05,07,05,08,2.90
2010,05,07,05,09,2.90
2010,05,07,05,10,2.90
2010,05,07,05,11,2.90
2010,05,07,05,12,2.90
2010,05,07,05,13,2.90
2010,05,07,05,14,2.90
2010,05,07,05,15,2.90
2010,05,07,05,16,2.90
2010,05,07,05,17,2.80
2010,05,07,05,18,2.80
2010,05,07,05,19,2.80
2010,05,07,05,20,2.70
2010,05,07,05,21,2.70
2010,05,07,05,22,2.70
2010,05,07,05,23,2.70
2010,05,07,05,24,2.70
2010,05,07,05,25,2.60
2010,05,07,05,26,2.60
2010,05,07,05,27,2.60
2010,05,07,05,28,2.60
2010,05,07,05,29,2.70
2010,05,07,05,30,2.70
2010,05,07,05,31,2.70
2010,05,07,05,32,2.70
2010,05,07,05,33,2.70
2010,05,07,05,34,2.70
2010,05,07,05,35,2.70
2010,05,07,05,36,2.60
2010,05,07,05,37,2.60
2010,05,07,05,38,2.60
2010,05,07,05,39,2.60
2010,05,07,05,40,2.50
2010,05,07,05,41,2.50
2010,05,07,05,42,2.50
2010,05,07,05,43,2.50
2010,05,07,05,44,2.50
2010,05,07,05,45,2.50
2010,05,07,05,46,2.40
2010,05,07,05,47,2.40
2010,05,07,05,48,2.40
2010,05,07,05,49,2.40
2010,05,07,05,50,2.30
2010,05,07,05,51,2.30
2010,05,07,05,52,2.30
2010,05,07,05,53,2.30
2010,05,07,05,54,2.30
2010,05,07,05,55,2.20
2010,05,07,05,56,2.20
2010,05,07,05,57,2.20
2010,05,07,05,58,2.20
2010,05,07,05,59,2.20
2010,05,07,06,00,2.30
2010,05,07,06,01,2.30
2010,05,07,06,02,2.40
2010,05,07,06,03,2.40
2010,05,07,06,04,2.50
2010,05,07,06,05,2.60
2010,05,07,06,06,2.60
2010,05,07,06,07,2.60
2010,05,07,06,08,2.60
2010,05,07,06,09,2.60
2010,05,07,06,10,2.50
2010,05,07,06,11,2.50
2010,05,07,06,12,2.60
2010,05,07,06,13,2.60
2010,05,07,06,14,2.60
2010,05,07,06,15,2.70
2010,05,07,06,16,2.70
2010,05,07,06,17,2.70
2010,05,07,06,18,2.80
2010,05,07,06,19,2.90
2010,05,07,06,20,2.90
2010,05,07,06,21,3.00
2010,05,07,06,22,3.10
2010,05,07,06,23,3.10
2010,05,07,06,24,3.10
2010,05,07,06,25,3.10
2010,05,07,06,26,3.10
2010,05,07,06,27,3.10
2010,05,07,06,28,3.20
2010,05,07,06,29,3.30
2010,05,07,06,30,3.30
2010,05,07,06,31,3.30
2010,05,07,06,32,3.30
2010,05,07,06,33,3.40
2010,05,07,06,34,3.50
2010,05,07,06,35,3.60
2010,05,07,06,36,3.60
2010,05,07,06,37,3.70
2010,05,07,06,38,3.60
2010,05,07,06,39,3.60
2010,05,07,06,40,3.70
2010,05,07,06,41,3.70
2010,05,07,06,42,3.70
2010,05,07,06,43,3.80
2010,05,07,06,44,3.80
2010,05,07,06,45,3.80
2010,05,07,06,46,3.90
2010,05,07,06,47,4.00
2010,05,07,06,48,4.00
2010,05,07,06,49,4.10
2010,05,07,06,50,4.20
2010,05,07,06,51,4.20
2010,05,07,06,52,4.20
2010,05,07,06,53,4.20
2010,05,07,06,54,4.20
2010,05,07,06,55,4.30
2010,05,07,06,56,4.30
2010,05,07,06,57,4.40
2010,05,07,06,58,4.40
2010,05,07,06,59,4.50
2010,05,07,07,00,4.50
2010,05,07,07,01,4.60
2010,05,07,07,02,4.60
2010,05,07,07,03,4.60
2010,05,07,07,04,4.70
2010,05,07,07,05,4.80
2010,05,07,07,06,4.90
2010,05,07,07,07,5.00
2010,05,07,07,08,5.10
2010,05,07,07,09,5.10
2010,05,07,07,10,5.20
2010,05,07,07,11,5.30
2010,05,07,07,12,5.40
2010,05,07,07,13,5.50
2010,05,07,07,14,5.60
2010,05,07,07,15,5.60
2010,05,07,07,16,5.70
2010,05,07,07,17,5.80
2010,05,07,07,18,5.90
2010,05,07,07,19,5.90
2010,05,07,07,20,6.00
2010,05,07,07,21,6.10
2010,05,07,07,22,6.20
2010,05,07,07,23,6.30
2010,05,07,07,24,6.40
2010,05,07,07,25,6.40
2010,05,07,07,26,6.60
2010,05,07,07,27,6.60
2010,05,07,07,28,6.80
2010,05,07,07,29,6.80
2010,05,07,07,30,6.90
2010,05,07,07,31,7.00
2010,05,07,07,32,7.00
2010,05,07,07,33,7.10
2010,05,07,07,34,7.20
2010,05,07,07,35,7.20
2010,05,07,07,36,7.30
2010,05,07,07,37,7.40
2010,05,07,07,38,7.50
2010,05,07,07,39,7.60
2010,05,07,07,40,7.70
2010,05,07,07,41,7.80
2010,05,07,07,42,7.90
2010,05,07,07,43,7.90
2010,05,07,07,44,8.00
2010,05,07,07,45,8.10
2010,05,07,07,46,8.10
2010,05,07,07,47,8.20
2010,05,07,07,48,8.30
2010,05,07,07,49,8.30
2010,05,07,07,50,8.40
2010,05,07,07,51,8.40
2010,05,07,07,52,8.40
2010,05,07,07,53,8.40
2010,05,07,07,54,8.30
2010,05,07,07,55,8.30
2010,05,07,07,56,8.20
2010,05,07,07,57,8.20
2010,05,07,07,58,8.20
2010,05,07,07,59,8.30
2010,05,07,08,00,8.30
2010,05,07,08,01,8.40
2010,05,07,08,02,8.50
2010,05,07,08,03,8.60
2010,05,07,08,04,8.60
2010,05,07,08,05,8.60
2010,05,07,08,06,8.70
2010,05,07,08,07,8.70
2010,05,07,08,08,8.70
2010,05,07,08,09,8.70
2010,05,07,08,10,8.70
2010,05,07,08,11,8.70
2010,05,07,08,12,8.70
2010,05,07,08,13,8.80
2010,05,07,08,14,8.90
2010,05,07,08,15,8.90
2010,05,07,08,16,9.00
2010,05,07,08,17,9.00
2010,05,07,08,18,9.00
2010,05,07,08,19,9.00
2010,05,07,08,20,9.00
2010,05,07,08,21,9.00
2010,05,07,08,22,9.00
2010,05,07,08,23,9.00
2010,05,07,08,24,9.00
2010,05,07,08,25,9.00
2010,05,07,08,26,9.00
2010,05,07,08,27,9.10
2010,05,07,08,28,9.20
2010,05,07,08,29,9.20
2010,05,07,08,30,9.30
2010,05,07,08,31,9.40
2010,05,07,08,32,9.50
2010,05,07,08,33,9.50
2010,05,07,08,34,9.60
2010,05,07,08,35,9.60
2010,05,07,08,36,9.60
2010,05,07,08,37,9.70
2010,05,07,08,38,9.70
2010,05,07,08,39,9.80
2010,05,07,08,40,9.90
2010,05,07,08,41,9.90
2010,05,07,08,42,10.00
2010,05,07,08,43,10.10
2010,05,07,08,44,10.10
2010,05,07,08,45,10.10
2010,05,07,08,46,10.10
2010,05,07,08,47,10.00
2010,05,07,08,48,9.90
2010,05,07,08,49,10.10
2010,05,07,08,50,10.10
2010,05,07,08,51,10.10
2010,05,07,08,52,10.10
2010,05,07,08,53,10.10
2010,05,07,08,54,10.10
2010,05,07,08,55,10.10
2010,05,07,08,56,10.10
2010,05,07,08,57,10.10
2010,05,07,08,58,10.30
2010,05,07,08,59,10.30
2010,05,07,09,00,10.40
2010,05,07,09,01,10.40
2010,05,07,09,02,10.40
2010,05,07,09,03,10.30
2010,05,07,09,04,10.20
2010,05,07,09,05,10.30
2010,05,07,09,06,10.30
2010,05,07,09,07,10.40
2010,05,07,09,08,10.40
2010,05,07,09,09,10.40
2010,05,07,09,10,10.40
2010,05,07,09,11,10.50
2010,05,07,09,12,10.60
2010,05,07,09,13,10.80
2010,05,07,09,14,10.80
2010,05,07,09,15,10.90
2010,05,07,09,16,10.90
2010,05,07,09,17,10.90
2010,05,07,09,18,11.00
2010,05,07,09,19,11.10
2010,05,07,09,20,11.10
2010,05,07,09,21,11.20
2010,05,07,09,22,11.30
2010,05,07,09,23,11.30
2010,05,07,09,24,11.40
2010,05,07,09,25,11.40
2010,05,07,09,26,11.40
2010,05,07,09,27,11.40
2010,05,07,09,28,11.50
2010,05,07,09,29,11.60
2010,05,07,09,30,11.60
2010,05,07,09,31,11.60
2010,05,07,09,32,11.60
2010,05,07,09,33,11.60
2010,05,07,09,34,11.50
2010,05,07,09,35,11.40
2010,05,07,09,36,11.30
2010,05,07,09,37,11.30
2010,05,07,09,38,11.20
2010,05,07,09,39,11.20
2010,05,07,09,40,11.10
2010,05,07,09,41,11.10
2010,05,07,09,42,11.00
2010,05,07,09,43,10.90
2010,05,07,09,44,10.90
2010,05,07,09,45,10.90
2010,05,07,09,46,10.90
2010,05,07,09,47,11.00
2010,05,07,09,48,11.10
2010,05,07,09,49,11.10
2010,05,07,09,50,11.20
2010,05,07,09,51,11.30
2010,05,07,09,52,11.30
2010,05,07,09,53,11.40
2010,05,07,09,54,11.40
2010,05,07,09,55,11.40
2010,05,07,09,56,11.60
2010,05,07,09,57,11.60
2010,05,07,09,58,11.60
2010,05,07,09,59,11.60
2010,05,07,10,00,11.60
2010,05,07,10,01,11.60
2010,05,07,10,02,11.60
2010,05,07,10,03,11.60
2010,05,07,10,04,11.70
2010,05,07,10,05,11.80
2010,05,07,10,06,11.90
2010,05,07,10,07,12.00
2010,05,07,10,08,12.10
2010,05,07,10,09,12.10
2010,05,07,10,10,12.00
2010,05,07,10,11,12.10
2010,05,07,10,12,12.10
2010,05,07,10,13,12.00
2010,05,07,10,14,12.00
2010,05,07,10,15,11.90
2010,05,07,10,16,11.80
2010,05,07,10,17,11.80
2010,05,07,10,18,11.80
2010,05,07,10,19,12.00
2010,05,07,10,20,12.10
2010,05,07,10,21,12.30
2010,05,07,10,22,12.40
2010,05,07,10,23,12.60
2010,05,07,10,24,12.70
2010,05,07,10,25,12.80
2010,05,07,10,26,12.90
2010,05,07,10,27,13.10
2010,05,07,10,28,13.10
2010,05,07,10,29,13.10
2010,05,07,10,30,13.00
2010,05,07,10,31,13.00
2010,05,07,10,32,13.10
2010,05,07,10,33,13.10
2010,05,07,10,34,13.20
2010,05,07,10,35,13.30
2010,05,07,10,36,13.40
2010,05,07,10,37,13.50
2010,05,07,10,38,13.70
2010,05,07,10,39,13.70
2010,05,07,10,40,13.60
2010,05,07,10,41,13.60
2010,05,07,10,42,13.60
2010,05,07,10,43,13.60
2010,05,07,10,44,13.60
2010,05,07,10,45,13.60
2010,05,07,10,46,13.50
2010,05,07,10,47,13.50
2010,05,07,10,48,13.60
2010,05,07,10,49,13.60
2010,05,07,10,50,13.70
2010,05,07,10,51,13.70
2010,05,07,10,52,13.70
2010,05,07,10,53,13.70
2010,05,07,10,54,13.70
2010,05,07,10,55,13.70
2010,05,07,10,56,13.80
2010,05,07,10,57,13.90
2010,05,07,10,58,13.90
2010,05,07,10,59,13.80
2010,05,07,11,00,13.80
2010,05,07,11,01,13.80
2010,05,07,11,02,13.80
2010,05,07,11,03,13.80
2010,05,07,11,04,13.80
2010,05,07,11,05,13.80
2010,05,07,11,06,13.80
2010,05,07,11,07,13.80
2010,05,07,11,08,13.80
2010,05,07,11,09,13.80
2010,05,07,11,10,13.80
2010,05,07,11,11,13.70
2010,05,07,11,12,13.70
2010,05,07,11,13,13.70
2010,05,07,11,14,13.70
2010,05,07,11,15,13.70
2010,05,07,11,16,13.60
2010,05,07,11,17,13.60
2010,05,07,11,18,13.50
2010,05,07,11,19,13.50
2010,05,07,11,20,13.60
2010,05,07,11,21,13.60
2010,05,07,11,22,13.60
2010,05,07,11,23,13.70
2010,05,07,11,24,13.70
2010,05,07,11,25,13.70
2010,05,07,11,26,13.70
2010,05,07,11,27,13.80
2010,05,07,11,28,13.90
2010,05,07,11,29,14.00
2010,05,07,11,30,14.00
2010,05,07,11,31,13.90
2010,05,07,11,32,13.90
2010,05,07,11,33,14.00
2010,05,07,11,34,14.10
2010,05,07,11,35,14.10
2010,05,07,11,36,14.10
2010,05,07,11,37,14.10
2010,05,07,11,38,14.00
2010,05,07,11,39,14.00
2010,05,07,11,40,14.10
2010,05,07,11,41,14.20
2010,05,07,11,42,14.20
2010,05,07,11,43,14.20
2010,05,07,11,44,14.10
2010,05,07,11,45,14.10
2010,05,07,11,46,14.10
2010,05,07,11,47,14.10
2010,05,07,11,48,13.90
2010,05,07,11,49,13.70
2010,05,07,11,50,13.50
2010,05,07,11,51,13.30
2010,05,07,11,52,13.30
2010,05,07,11,53,13.30
2010,05,07,11,54,13.40
2010,05,07,11,55,13.50
2010,05,07,11,56,13.60
2010,05,07,11,57,13.70
2010,05,07,11,58,13.70
2010,05,07,11,59,13.70
2010,05,07,12,00,13.70
2010,05,07,12,01,13.80
2010,05,07,12,02,13.90
2010,05,07,12,03,14.00
2010,05,07,12,04,14.10
2010,05,07,12,05,14.20
2010,05,07,12,06,14.20
2010,05,07,12,07,14.10
2010,05,07,12,08,14.00
2010,05,07,12,09,13.90
2010,05,07,12,10,14.00
2010,05,07,12,11,14.00
2010,05,07,12,12,14.10
2010,05,07,12,13,14.10
2010,05,07,12,14,14.00
2010,05,07,12,15,13.90
2010,05,07,12,16,14.00
2010,05,07,12,17,14.20
2010,05,07,12,18,14.40
2010,05,07,12,19,14.50
2010,05,07,12,20,14.40
2010,05,07,12,21,14.20
2010,05,07,12,22,14.20
2010,05,07,12,23,14.10
2010,05,07,12,24,14.20
2010,05,07,12,25,14.20
2010,05,07,12,26,14.20
2010,05,07,12,27,14.00
2010,05,07,12,28,13.80
2010,05,07,12,29,13.80
2010,05,07,12,30,13.80
2010,05,07,12,31,13.90
2010,05,07,12,32,13.90
2010,05,07,12,33,13.90
2010,05,07,12,34,14.10
2010,05,07,12,35,14.20
2010,05,07,12,36,14.20
2010,05,07,12,37,14.20
2010,05,07,12,38,14.20
2010,05,07,12,39,14.30
2010,05,07,12,40,14.20
2010,05,07,12,41,14.10
2010,05,07,12,42,14.10
2010,05,07,12,43,14.20
2010,05,07,12,44,14.30
2010,05,07,12,45,14.40
2010,05,07,12,46,14.50
2010,05,07,12,47,14.70
2010,05,07,12,48,14.90
2010,05,07,12,49,15.10
2010,05,07,12,50,15.20
2010,05,07,12,51,15.30
2010,05,07,12,52,15.40
2010,05,07,12,53,15.40
2010,05,07,12,54,15.50
2010,05,07,12,55,15.50
2010,05,07,12,56,15.40
2010,05,07,12,57,15.30
2010,05,07,12,58,15.10
2010,05,07,12,59,15.10
2010,05,07,13,00,15.10
2010,05,07,13,01,15.10
2010,05,07,13,02,15.10
2010,05,07,13,03,15.00
2010,05,07,13,04,14.80
2010,05,07,13,05,14.80
2010,05,07,13,06,14.80
2010,05,07,13,07,15.00
2010,05,07,13,08,15.10
2010,05,07,13,09,15.20
2010,05,07,13,10,15.30
2010,05,07,13,11,15.30
2010,05,07,13,12,15.30
2010,05,07,13,13,15.30
2010,05,07,13,14,15.30
2010,05,07,13,15,15.30
2010,05,07,13,16,15.40
2010,05,07,13,17,15.50
2010,05,07,13,18,15.60
2010,05,07,13,19,15.60
2010,05,07,13,20,15.70
2010,05,07,13,21,15.70
2010,05,07,13,22,15.70
2010,05,07,13,23,15.60
2010,05,07,13,24,15.50
2010,05,07,13,25,15.50
2010,05,07,13,26,15.50
2010,05,07,13,27,15.50
2010,05,07,13,28,15.50
2010,05,07,13,29,15.50
2010,05,07,13,30,15.40
2010,05,07,13,31,15.30
2010,05,07,13,32,15.30
2010,05,07,13,33,15.30
2010,05,07,13,34,15.40
2010,05,07,13,35,15.40
2010,05,07,13,36,15.50
2010,05,07,13,37,15.60
2010,05,07,13,38,15.60
2010,05,07,13,39,15.60
2010,05,07,13,40,15.60
2010,05,07,13,41,15.60
2010,05,07,13,42,15.60
2010,05,07,13,43,15.70
2010,05,07,13,44,15.60
2010,05,07,13,45,15.50
2010,05,07,13,46,15.50
2010,05,07,13,47,15.50
2010,05,07,13,48,15.50
2010,05,07,13,49,15.50
2010,05,07,13,50,15.50
2010,05,07,13,51,15.50
2010,05,07,13,52,15.50
2010,05,07,13,53,15.50
2010,05,07,13,54,15.60
2010,05,07,13,55,15.50
2010,05,07,13,56,15.40
2010,05,07,13,57,15.30
2010,05,07,13,58,15.40
2010,05,07,13,59,15.40
2010,05,07,14,00,15.40
2010,05,07,14,01,15.40
2010,05,07,14,02,15.40
2010,05,07,14,03,15.30
2010,05,07,14,04,15.30
2010,05,07,14,05,15.40
2010,05,07,14,06,15.60
2010,05,07,14,07,15.70
2010,05,07,14,08,15.80
2010,05,07,14,09,15.80
2010,05,07,14,10,15.70
2010,05,07,14,11,15.60
2010,05,07,14,12,15.50
2010,05,07,14,13,15.40
2010,05,07,14,14,15.20
2010,05,07,14,15,15.10
2010,05,07,14,16,15.20
2010,05,07,14,17,15.20
2010,05,07,14,18,15.10
2010,05,07,14,19,15.10
2010,05,07,14,20,14.90
2010,05,07,14,21,14.80
2010,05,07,14,22,14.80
2010,05,07,14,23,14.70
2010,05,07,14,24,14.70
2010,05,07,14,25,14.70
2010,05,07,14,26,14.80
2010,05,07,14,27,14.90
2010,05,07,14,28,15.00
2010,05,07,14,29,15.10
2010,05,07,14,30,15.20
2010,05,07,14,31,15.20
2010,05,07,14,32,15.30
2010,05,07,14,33,15.30
2010,05,07,14,34,15.30
2010,05,07,14,35,15.30
2010,05,07,14,36,15.30
2010,05,07,14,37,15.30
2010,05,07,14,38,15.30
2010,05,07,14,39,15.30
2010,05,07,14,40,15.30
2010,05,07,14,41,15.20
2010,05,07,14,42,15.10
2010,05,07,14,43,15.10
2010,05,07,14,44,15.00
2010,05,07,14,45,15.10
2010,05,07,14,46,15.00
2010,05,07,14,47,14.80
2010,05,07,14,48,14.70
2010,05,07,14,49,14.70
2010,05,07,14,50,14.60
2010,05,07,14,51,14.60
2010,05,07,14,52,14.60
2010,05,07,14,53,14.60
2010,05,07,14,54,14.50
2010,05,07,14,55,14.50
2010,05,07,14,56,14.40
2010,05,07,14,57,14.30
2010,05,07,14,58,14.30
2010,05,07,14,59,14.30
2010,05,07,15,00,14.30
2010,05,07,15,01,14.40
2010,05,07,15,02,14.50
2010,05,07,15,03,14.60
2010,05,07,15,04,14.60
2010,05,07,15,05,14.60
2010,05,07,15,06,14.50
2010,05,07,15,07,14.40
2010,05,07,15,08,14.20
2010,05,07,15,09,14.10
2010,05,07,15,10,14.00
2010,05,07,15,11,13.90
2010,05,07,15,12,13.90
2010,05,07,15,13,13.80
2010,05,07,15,14,13.70
2010,05,07,15,15,13.70
2010,05,07,15,16,13.60
2010,05,07,15,17,13.60
2010,05,07,15,18,13.60
2010,05,07,15,19,13.70
2010,05,07,15,20,13.70
2010,05,07,15,21,13.60
2010,05,07,15,22,13.60
2010,05,07,15,23,13.70
2010,05,07,15,24,13.80
2010,05,07,15,25,13.90
2010,05,07,15,26,13.90
2010,05,07,15,27,13.90
2010,05,07,15,28,14.00
2010,05,07,15,29,14.10
2010,05,07,15,30,14.30
2010,05,07,15,31,14.30
2010,05,07,15,32,14.20
2010,05,07,15,33,14.20
2010,05,07,15,34,14.00
2010,05,07,15,35,13.90
2010,05,07,15,36,13.80
2010,05,07,15,37,13.70
2010,05,07,15,38,13.70
2010,05,07,15,39,13.70
2010,05,07,15,40,13.70
2010,05,07,15,41,13.70
2010,05,07,15,42,13.70
2010,05,07,15,43,13.80
2010,05,07,15,44,13.80
2010,05,07,15,45,13.70
2010,05,07,15,46,13.70
2010,05,07,15,47,13.60
2010,05,07,15,48,13.60
2010,05,07,15,49,13.60
2010,05,07,15,50,13.60
2010,05,07,15,51,13.70
2010,05,07,15,52,13.70
2010,05,07,15,53,13.70
2010,05,07,15,54,13.70
2010,05,07,15,55,13.70
2010,05,07,15,56,13.70
2010,05,07,15,57,13.70
2010,05,07,15,58,13.80
2010,05,07,15,59,13.80
2010,05,07,16,00,13.80
2010,05,07,16,01,13.80
2010,05,07,16,02,13.80
2010,05,07,16,03,13.80
2010,05,07,16,04,13.70
2010,05,07,16,05,13.70
2010,05,07,16,06,13.70
2010,05,07,16,07,13.70
2010,05,07,16,08,13.70
2010,05,07,16,09,13.80
2010,05,07,16,10,13.90
2010,05,07,16,11,13.90
2010,05,07,16,12,13.90
2010,05,07,16,13,13.90
2010,05,07,16,14,13.90
2010,05,07,16,15,13.90
2010,05,07,16,16,13.90
2010,05,07,16,17,13.80
2010,05,07,16,18,13.70
2010,05,07,16,19,13.70
2010,05,07,16,20,13.70
2010,05,07,16,21,13.70
2010,05,07,16,22,13.70
2010,05,07,16,23,13.80
2010,05,07,16,24,13.80
2010,05,07,16,25,13.80
2010,05,07,16,26,13.80
2010,05,07,16,27,13.80
2010,05,07,16,28,13.90
2010,05,07,16,29,13.90
2010,05,07,16,30,13.90
2010,05,07,16,31,13.90
2010,05,07,16,32,13.90
2010,05,07,16,33,13.80
2010,05,07,16,34,13.70
2010,05,07,16,35,13.60
2010,05,07,16,36,13.60
2010,05,07,16,37,13.60
2010,05,07,16,38,13.70
2010,05,07,16,39,13.60
2010,05,07,16,40,13.60
2010,05,07,16,41,13.60
2010,05,07,16,42,13.50
2010,05,07,16,43,13.60
2010,05,07,16,44,13.60
2010,05,07,16,45,13.60
2010,05,07,16,46,13.60
2010,05,07,16,47,13.60
2010,05,07,16,48,13.60
2010,05,07,16,49,13.70
2010,05,07,16,50,13.70
2010,05,07,16,51,13.70
2010,05,07,16,52,13.70
2010,05,07,16,53,13.70
2010,05,07,16,54,13.70
2010,05,07,16,55,13.60
2010,05,07,16,56,13.60
2010,05,07,16,57,13.70
2010,05,07,16,58,13.70
2010,05,07,16,59,13.90
2010,05,07,17,00,14.00
2010,05,07,17,01,14.00
2010,05,07,17,02,14.10
2010,05,07,17,03,14.10
2010,05,07,17,04,14.20
2010,05,07,17,05,14.20
2010,05,07,17,06,14.20
2010,05,07,17,07,14.20
2010,05,07,17,08,14.20
2010,05,07,17,09,14.20
2010,05,07,17,10,14.20
2010,05,07,17,11,14.20
2010,05,07,17,12,14.10
2010,05,07,17,13,14.10
2010,05,07,17,14,14.10
2010,05,07,17,15,14.20
2010,05,07,17,16,14.10
2010,05,07,17,17,14.20
2010,05,07,17,18,14.20
2010,05,07,17,19,14.10
2010,05,07,17,20,13.90
2010,05,07,17,21,13.70
2010,05,07,17,22,13.60
2010,05,07,17,23,13.60
2010,05,07,17,24,13.50
2010,05,07,17,25,13.40
2010,05,07,17,26,13.20
2010,05,07,17,27,13.10
2010,05,07,17,28,13.00
2010,05,07,17,29,12.90
2010,05,07,17,30,12.90
2010,05,07,17,31,12.80
2010,05,07,17,32,12.70
2010,05,07,17,33,12.60
2010,05,07,17,34,12.60
2010,05,07,17,35,12.50
2010,05,07,17,36,12.60
2010,05,07,17,37,12.60
2010,05,07,17,38,12.70
2010,05,07,17,39,12.80
2010,05,07,17,40,12.80
2010,05,07,17,41,12.90
2010,05,07,17,42,13.00